Oxford, NC

2:08 PM EDT on June 22, 2017 (GMT -0400)
Henderson-Oxford

Weather History for KHNZ - April, 2013

Change the Weather History Date:

Monday, April 29, 2013

  Actual Average (KTDF) Record (KTDF)
Temperature  
Mean Temperature 62 °F -  
Max Temperature 70 °F 73 °F 89 °F (1957)
Min Temperature 53 °F 46 °F 32 °F (1967)
Degree Days  
Heating Degree Days 4    
Growing Degree Days 12 (Base 50)    
Moisture  
Dew Point 57 °F    
Average Humidity 88    
Maximum Humidity 96    
Minimum Humidity 67    
Precipitation  
Precipitation 0.79 in - - ()
Sea Level Pressure  
Sea Level Pressure 30.04 in    
Wind  
Wind Speed 3 mph (South)    
Max Wind Speed 12 mph    
Max Gust Speed -    
Visibility 8 miles    
Events Rain    
Averages and records for this station are not official NWS values.
T = Trace of Precipitation, MM = Missing Value Source: NWS Daily Summary

Daily Weather History Graph

Daily Weather History Graph

Search for Another Location

Airport or City:

Trip Planner

Search our weather history database for the weather conditions in past years. The results will help you decide how hot, cold, wet, or windy it might be!

Date:

Astronomy

Apr. 29, 2013 Rise Set
Actual Time 6:22 AM EDT 8:00 PM EDT
Civil Twilight 5:55 AM EDT 8:28 PM EDT
Nautical Twilight 5:22 AM EDT 9:01 PM EDT
Astronomical Twilight 4:47 AM EDT 9:36 PM EDT
Moon No Moon Rise 9:44 AM EDT (4/29)
Length of Visible Light 14h 32m
Length of Day
13h 37m
Waning Gibbous, 80% of the Moon is Illuminated
Apr 29
Waning Gibbous
May 2
Last Quarter
May 9
New
May 18
First Quarter
May 25
Full

Hourly Weather History & Observations

Time (EDT) Temp. Dew Point Humidity Pressure Visibility Wind Dir Wind Speed Gust Speed Precip Events Conditions
12:15 AM 53.4 °F 51.1 °F 92% 30.11 in 7.0 mi SSE 4.6 mph - 0.01 in Rain Light Rain
12:35 AM 53.6 °F 51.6 °F 93% 30.11 in 7.0 mi SSE 5.8 mph - 0.04 in Rain Light Rain
12:55 AM 54.0 °F 52.2 °F 94% 30.10 in 7.0 mi SSE 6.9 mph - 0.05 in Rain Rain
1:15 AM 54.5 °F 52.7 °F 94% 30.09 in 5.0 mi South 6.9 mph - 0.02 in Rain Rain
1:35 AM 55.2 °F 53.6 °F 94% 30.09 in 7.0 mi SSE 6.9 mph - 0.04 in Rain Rain
1:55 AM 55.6 °F 53.8 °F 94% 30.09 in 3.0 mi SSE 11.5 mph - 0.22 in Rain Heavy Rain
2:15 AM 55.4 °F 53.6 °F 94% 30.08 in 5.0 mi SSE 5.8 mph - 0.09 in Rain Rain
2:35 AM 55.4 °F 53.6 °F 94% 30.07 in 7.0 mi ESE 8.1 mph - 0.12 in Rain Rain
2:55 AM 55.4 °F 53.6 °F 94% 30.06 in 5.0 mi ESE 5.8 mph - 0.15 in Rain Rain
3:15 AM 55.0 °F 53.6 °F 95% 30.05 in 5.0 mi ESE 5.8 mph - 0.02 in Rain Rain
3:35 AM 55.0 °F 53.6 °F 95% 30.05 in 5.0 mi SE 3.5 mph - 0.04 in Rain Rain
3:55 AM 55.2 °F 53.6 °F 94% 30.04 in 7.0 mi SE 4.6 mph - 0.06 in Rain Light Rain
4:15 AM 55.4 °F 54.0 °F 95% 30.04 in 5.0 mi SSE 5.8 mph - 0.04 in Rain Rain
4:35 AM 55.6 °F 54.1 °F 95% 30.04 in 7.0 mi Calm Calm - 0.08 in Rain Rain
4:55 AM 55.6 °F 54.1 °F 95% 30.04 in 7.0 mi Calm Calm - 0.10 in Rain Light Rain
5:15 AM 55.6 °F 54.1 °F 95% 30.03 in 7.0 mi Calm Calm - 0.02 in Rain Rain
5:35 AM 55.8 °F 54.5 °F 96% 30.03 in 4.0 mi Calm Calm - 0.08 in Rain Heavy Rain
5:55 AM 55.9 °F 54.5 °F 95% 30.03 in 5.0 mi South 4.6 mph - 0.12 in Rain Light Rain
6:15 AM 56.3 °F 54.9 °F 95% 30.03 in 10.0 mi South 4.6 mph - N/A Rain Light Rain
6:35 AM 56.3 °F 54.9 °F 95% 30.04 in 7.0 mi WNW 3.5 mph - 0.02 in Rain Rain
6:55 AM 56.3 °F 55.0 °F 96% 30.05 in 7.0 mi Calm Calm - 0.03 in Rain Rain
7:15 AM 56.5 °F 55.0 °F 95% 30.05 in 7.0 mi Calm Calm - 0.01 in Rain Light Rain
7:35 AM 56.5 °F 55.2 °F 96% 30.05 in 7.0 mi Calm Calm - 0.02 in Rain Light Rain
7:55 AM 56.7 °F 55.4 °F 96% 30.05 in 7.0 mi Calm Calm - 0.03 in Rain Rain
8:15 AM 56.8 °F 55.6 °F 96% 30.06 in 7.0 mi Calm Calm - 0.01 in Rain Light Rain
8:35 AM 57.2 °F 55.8 °F 95% 30.06 in 7.0 mi Calm Calm - 0.02 in Rain Light Rain
8:55 AM 57.4 °F 55.9 °F 95% 30.06 in 7.0 mi Calm Calm - 0.03 in Rain Light Rain
9:15 AM 58.1 °F 56.5 °F 94% 30.06 in 7.0 mi Calm Calm - N/A   Light Drizzle
9:35 AM 58.5 °F 57.2 °F 96% 30.05 in 7.0 mi Calm Calm - N/A Rain Light Rain
9:55 AM 59.2 °F 57.7 °F 95% 30.05 in 10.0 mi Calm Calm - N/A Rain Light Rain
10:15 AM 59.7 °F 57.9 °F 94% 30.05 in 10.0 mi SSW 4.6 mph - N/A   Light Drizzle
10:35 AM 59.9 °F 58.1 °F 94% 30.06 in 10.0 mi SW 3.5 mph - N/A   Overcast
10:55 AM 60.8 °F 58.5 °F 92% 30.06 in 10.0 mi Calm Calm - N/A   Overcast
11:15 AM 61.7 °F 58.5 °F 89% 30.06 in 10.0 mi Calm Calm - N/A   Overcast
11:35 AM 62.6 °F 58.1 °F 85% 30.06 in 10.0 mi Calm Calm - N/A   Overcast
11:55 AM 63.3 °F 58.3 °F 84% 30.06 in 10.0 mi SSW 3.5 mph - N/A   Overcast
12:15 PM 63.5 °F 58.5 °F 84% 30.06 in 10.0 mi Calm Calm - N/A   Overcast
12:35 PM 64.0 °F 57.9 °F 80% 30.06 in 10.0 mi West 3.5 mph - N/A   Overcast
12:55 PM 64.6 °F 57.7 °F 78% 30.04 in 10.0 mi WSW 3.5 mph - N/A   Overcast
1:15 PM 65.1 °F 57.4 °F 76% 30.04 in 10.0 mi Calm Calm - N/A   Overcast
1:35 PM 65.5 °F 58.5 °F 78% 30.04 in 10.0 mi Calm Calm - N/A   Overcast
1:55 PM 64.9 °F 57.9 °F 78% 30.04 in 10.0 mi WSW 4.6 mph - N/A   Overcast
2:15 PM 65.3 °F 58.8 °F 80% 30.04 in 10.0 mi South 4.6 mph - N/A   Overcast
2:35 PM 65.7 °F 58.8 °F 79% 30.03 in 10.0 mi Calm Calm - N/A   Overcast
2:55 PM 66.7 °F 59.0 °F 76% 30.03 in 10.0 mi SSW 4.6 mph - N/A   Mostly Cloudy
3:15 PM 67.8 °F 58.5 °F 72% 30.02 in 10.0 mi SW 4.6 mph - N/A   Scattered Clouds
3:35 PM 67.6 °F 57.2 °F 69% 30.01 in 10.0 mi WSW 4.6 mph - N/A   Mostly Cloudy
3:55 PM 69.3 °F 57.7 °F 67% 30.00 in 10.0 mi WSW 3.5 mph - N/A   Mostly Cloudy
4:15 PM 70.7 °F 59.2 °F 67% 29.99 in 10.0 mi WSW 3.5 mph - N/A   Scattered Clouds
4:55 PM 68.4 °F 57.9 °F 69% 29.98 in 10.0 mi Calm Calm - N/A   Mostly Cloudy
5:15 PM 68.5 °F 58.5 °F 70% 29.99 in 10.0 mi NW 3.5 mph - N/A   Overcast
5:35 PM 68.4 °F 57.7 °F 69% 29.99 in 10.0 mi Calm Calm - N/A   Mostly Cloudy
5:55 PM 68.2 °F 57.7 °F 69% 29.99 in 10.0 mi North 3.5 mph - N/A   Mostly Cloudy
6:15 PM 67.1 °F 58.3 °F 73% 29.99 in 10.0 mi North 3.5 mph - N/A   Mostly Cloudy
6:35 PM 66.2 °F 59.0 °F 78% 29.99 in 10.0 mi NNW 3.5 mph - N/A   Overcast
6:55 PM 65.3 °F 59.4 °F 81% 29.99 in 10.0 mi Calm Calm - N/A   Mostly Cloudy
7:15 PM 66.2 °F 59.0 °F 78% 29.99 in 10.0 mi NNE 3.5 mph - N/A   Mostly Cloudy
7:35 PM 65.3 °F 58.1 °F 77% 30.00 in 10.0 mi Calm Calm - N/A   Clear
7:55 PM 64.4 °F 58.3 °F 80% 30.00 in 10.0 mi Calm Calm - N/A   Clear
8:15 PM 63.0 °F 58.5 °F 85% 30.01 in 10.0 mi Calm Calm - N/A   Clear
8:35 PM 61.9 °F 58.8 °F 90% 30.02 in 10.0 mi Calm Calm - N/A   Clear
8:55 PM 61.0 °F 58.8 °F 93% 30.03 in 10.0 mi Calm Calm - N/A   Scattered Clouds
9:15 PM 60.6 °F 58.5 °F 93% 30.03 in 10.0 mi Calm Calm - N/A   Mostly Cloudy
9:35 PM 60.3 °F 58.6 °F 94% 30.03 in 7.0 mi Calm Calm - N/A   Scattered Clouds
9:55 PM 59.9 °F 58.1 °F 94% 30.03 in 2.0 mi Calm Calm - N/A   Scattered Clouds
10:15 PM 58.5 °F 57.0 °F 95% 30.03 in 1.5 mi Calm Calm - N/A   Mist
10:35 PM 58.8 °F 57.4 °F 95% 30.04 in 4.0 mi Calm Calm - N/A   Mostly Cloudy
10:55 PM 57.9 °F 56.7 °F 96% 30.04 in 3.0 mi North 4.6 mph - N/A   Overcast
11:15 PM 58.3 °F 57.2 °F 96% 30.03 in 10.0 mi North 6.9 mph - N/A   Mostly Cloudy
11:35 PM 58.3 °F 57.2 °F 96% 30.04 in 10.0 mi Calm Calm - N/A   Scattered Clouds
11:55 PM 58.3 °F 56.8 °F 95% 30.04 in 10.0 mi NNE 3.5 mph - N/A   Mostly Cloudy